Location: Unspecified
(48.2082°N, 0.0000°E)
Time: 21:54:57
(UTC+00:00)

A-11 Canister half - Pass Details

Date: 29 June 2019
Orbit: 1515 x 1685 km, 47.2° (Epoch: 15 July)

Event Time Altitude Azimuth Distance (km) Brightness Sun altitude
Rises 15:00:58 0° 290° (WNW) 4,838 12.1 47.0°
Reaches altitude 10° 15:04:23 10° 284° (WNW) 3,825 11.9 46.5°
Maximum altitude 15:13:02 39° 220° (SW) 2,195 11.3 45.1°
Drops below altitude 10° 15:21:26 10° 156° (SSE) 3,700 11.0 43.8°
Sets 15:24:41 0° 148° (SSE) 4,665 11.4 43.2°
